Location: Newark
(49.8348°N, 24.0280°E)
Time: 07:18:12
(UTC+00:00)

Transit 2A - Pass Details

Date: 27 January 2020
Orbit: 600 x 959 km, 66.7° (Epoch: 18 February)

Event Time Altitude Azimuth Distance (km) Brightness Sun altitude
Rises 01:59:00 0° 324° (NW) 2,949 - -39.2°
Reaches altitude 10° 02:01:13 10° 327° (NNW) 2,074 - -38.8°
Maximum altitude 02:05:54 70° 51° (NE) 747 - -38.1°
Drops below altitude 10° 02:11:02 10° 136° (SE) 2,273 - -37.3°
Exits shadow 02:11:23 - 136° (SE) 2,408 8.8 -37.3°
Sets 02:13:33 0° 138° (SE) 3,256 9.5 -36.9°
